Flag for Belarus Weather past 2 weeks in Barysaw, Belarus

Now
25 °F

Passing clouds.


Feels Like: 18 °F
Forecast: 26 / 34 °F
Wind: 6 mph from Northeast

Location: Minsk

Current Time: Oct 23, 2014 at 1:34:01 AM

Latest Report: Oct 23, 2014 at 1:00 AM


Visibility: N/A

Pressure: 30.09 "Hg

Humidity: 86%

Dew point: 21 °F

Location of BarysawLocation

Historic Weather in Barysaw — Graph

°F

Barysaw temperature yesterday

Maximum temperature yesterday: 41 °F (at 12:00 AM)
Minimum temperature yesterday: 27 °F (at 10:00 PM)
Average temperature yesterday: 33 °F

Past Weeks' High & Low Weather Summary

 TemperatureHumidityPressure
High68 °F (Oct 10, 3:00 PM)100% (Oct 11, 7:00 AM)30.42 "Hg (Oct 11, 7:00 AM)
Low21 °F (Oct 19, 2:30 AM)40% (Oct 14, 3:00 PM)29.50 "Hg (Oct 20, 10:00 PM)
Average48 °F82%29.92 "Hg
* Reported Oct 8 12:30 AM — Oct 23 12:30 AM, Barysaw, Weather by CustomWeather, © 2014

Note: Actual official high and low records may vary slightly from our data, if they occured in-between our weather recording intervals... More about our weather records

Advertising

Barysaw weather history for previous 24 hours

 ConditionsComfort  
Time TempWeatherWind HumidityBarometerVisibility
12:30 AM
Oct 23
25 °FPassing clouds.6 mph86%30.09 "HgN/A
12:00 AM27 °FPassing clouds.6 mph80%30.09 "HgN/A
11:30 PM
Oct 22
27 °FPassing clouds.8 mph80%30.09 "HgN/A
11:00 PM27 °FPassing clouds.6 mph80%30.07 "HgN/A
10:30 PM27 °FPassing clouds.8 mph80%30.07 "HgN/A
10:00 PM27 °FPassing clouds.8 mph80%30.04 "HgN/A
9:30 PM28 °FOvercast.8 mph74%30.04 "HgN/A
9:00 PM28 °FOvercast.10 mph80%30.04 "HgN/A
8:30 PM28 °FOvercast.10 mph80%30.01 "HgN/A
8:00 PM30 °FOvercast.8 mph75%30.01 "HgN/A
7:30 PM30 °FOvercast.10 mph80%29.98 "HgN/A
7:00 PM30 °FOvercast.8 mph80%29.98 "HgN/A
6:30 PM30 °FOvercast.8 mph80%29.98 "HgN/A
6:00 PM32 °FOvercast.6 mph80%29.98 "HgN/A
5:30 PM32 °FOvercast.8 mph80%29.95 "HgN/A
5:00 PM32 °FOvercast.8 mph87%29.95 "HgN/A
4:30 PM32 °FOvercast.8 mph80%29.95 "HgN/A
4:00 PM32 °FOvercast.8 mph80%29.92 "HgN/A
3:30 PM32 °FOvercast.6 mph87%29.92 "HgN/A
3:00 PM32 °FOvercast.8 mph93%29.92 "HgN/A
2:30 PM32 °FOvercast.8 mph93%29.92 "HgN/A
2:00 PM32 °FLight snow. Overcast.8 mph93%29.92 "HgN/A
1:30 PM32 °FSprinkles. Ice fog.6 mph93%29.92 "Hg3 mi
1:00 PM32 °FSnow flurries. Overcast.8 mph93%29.92 "Hg1 mi
12:30 PM32 °FSnow flurries. Overcast.6 mph93%29.89 "Hg1 mi
12:00 PM32 °FLight snow. Overcast.8 mph100%29.89 "Hg3 mi
11:30 AM32 °FSnow flurries. Mostly cloudy.8 mph100%29.86 "Hg2 mi
11:03 AM32 °FSnow showers. Low clouds.6 mph100%29.86 "Hg1 mi
10:30 AM32 °FSnow flurries. Low clouds.8 mph100%29.86 "Hg2 mi
10:04 AM32 °FSnow flurries. Low clouds.8 mph100%29.86 "Hg1 mi
9:53 AM32 °FSnow flurries. Overcast.8 mph100%29.86 "Hg2 mi
9:30 AM32 °FSnow flurries. Overcast.6 mph100%29.86 "Hg2 mi
9:00 AM32 °FLight snow. Low clouds.8 mph100%29.83 "HgN/A
8:30 AM32 °FLight snow. Low clouds.8 mph100%29.83 "HgN/A
8:00 AM34 °FLow clouds.10 mph93%29.80 "Hg4 mi
7:30 AM34 °FLow clouds.13 mph93%29.77 "HgN/A
7:00 AM34 °FFog.10 mph100%29.77 "Hg3 mi
6:30 AM34 °FLow clouds.13 mph100%29.77 "Hg4 mi
6:00 AM36 °FFog.10 mph93%29.77 "Hg3 mi
5:30 AM36 °FFog.10 mph93%29.77 "Hg3 mi
5:00 AM36 °FLow clouds.10 mph100%29.74 "Hg5 mi
4:30 AM36 °FLow clouds.8 mph100%29.74 "Hg4 mi
3:30 AM37 °FLow clouds.8 mph93%29.74 "Hg4 mi
3:00 AM37 °FLow clouds.8 mph100%29.74 "Hg4 mi
2:30 AM37 °FLow clouds.8 mph100%29.71 "Hg4 mi
2:00 AM37 °FLow clouds.8 mph100%29.71 "Hg4 mi
1:54 AM39 °FFog.8 mph100%29.71 "Hg3 mi
1:30 AM39 °FPassing clouds.10 mph100%29.71 "HgN/A
1:00 AM41 °FPassing clouds.8 mph93%29.71 "HgN/A
Weather by CustomWeather, © 2014

See weather overviewHow to use our weather pages